Location: Stara Lesna
(49.1528°N, 20.2911°E)
Time: 03:26:31
(UTC+02:00)

CREW DRAGON DEMO-1 DEB - Visible Passes

Search period start: 24 October 2020 00:00
Search period end: 02 November 2020 23:00
Orbit: 362 x 364 km, 51.6° (Epoch: 23 October)

Date Brightness Start Highest point End Pass type
(mag) Time Alt. Az. Time Alt. Az. Time Alt. Az.
24 Oct 6.5 04:13:31 10° ENE 04:13:31 10° ENE 04:13:35 10° ENE visible
24 Oct 3.3 05:45:20 34° NW 05:46:17 49° N 05:49:14 10° ENE visible
25 Oct 5.4 03:42:23 21° ENE 03:42:23 21° ENE 03:43:34 10° ENE visible
25 Oct 3.0 05:14:11 17° WNW 05:16:23 62° NNE 05:19:22 10° E visible
26 Oct 3.8 04:11:12 43° NE 04:11:12 43° NE 04:13:36 10° E visible
27 Oct 2.9 04:40:00 49° NW 04:40:37 69° NNE 04:43:38 10° E visible
28 Oct 5.9 03:36:59 17° E 03:36:59 17° E 03:37:47 10° E visible
28 Oct 2.9 05:08:47 23° W 05:10:26 61° SSW 05:13:25 10° SE visible
29 Oct 4.3 04:05:46 36° E 04:05:46 36° E 04:07:42 10° ESE visible
29 Oct 4.2 05:37:34 11° W 05:40:01 25° SW 05:42:33 10° SSE visible
30 Oct 3.2 04:34:35 49° S 04:34:35 49° S 04:37:18 10° SE visible
31 Oct 4.4 05:03:26 20° SW 05:03:49 20° SW 05:06:08 10° SSE visible
01 Nov 5.7 04:00:31 13° SE 04:00:31 13° SE 04:00:59 10° SE visible
